Saipan, MP

11:47 PM ChST on August 19, 2017 (GMT +1000)
Saipan International

Weather History for PGSN - December, 2012

Change the Weather History Date:

Wednesday, December 12, 2012

  Actual Average Record
Temperature  
Mean Temperature 83 °F -  
Max Temperature 87 °F 83 °F 87 °F (1998)
Min Temperature 79 °F 76 °F 73 °F (2001)
Cooling Degree Days 18    
Growing Degree Days 33 (Base 50)    
Moisture  
Dew Point 72 °F    
Average Humidity 70    
Maximum Humidity 82    
Minimum Humidity 61    
Precipitation  
Precipitation 0.00 in - - ()
Sea Level Pressure  
Sea Level Pressure 29.97 in    
Wind  
Wind Speed 9 mph (ENE)    
Max Wind Speed 16 mph    
Max Gust Speed -    
Visibility 10 miles    
Events      
Averages and records for this station are not official NWS values.
T = Trace of Precipitation, MM = Missing Value Source: NWS Daily Summary

Daily Weather History Graph

Daily Weather History Graph

Search for Another Location

Airport or City:

Trip Planner

Search our weather history database for the weather conditions in past years. The results will help you decide how hot, cold, wet, or windy it might be!

Date:

Astronomy

Dec. 12, 2012 Rise Set
Actual Time 6:33 AM ChST 5:48 PM ChST
Civil Twilight 6:10 AM ChST 6:11 PM ChST
Nautical Twilight 5:43 AM ChST 6:38 PM ChST
Astronomical Twilight 5:16 AM ChST 7:04 PM ChST
Moon 4:59 AM ChST (12/12) 4:41 PM ChST (12/12)
Length of Visible Light 12h 01m
Length of Day
11h 14m
Waning Crescent, 2% of the Moon is Illuminated
Dec 12
Waning Crescent
Dec 13
New
Dec 20
First Quarter
Dec 28
Full
Jan 5
Last Quarter

Hourly Weather History & Observations

Time (ChST) Temp. Heat Index Dew Point Humidity Pressure Visibility Wind Dir Wind Speed Gust Speed Precip Events Conditions
12:54 AM 80.1 °F 83.6 °F 71.1 °F 74% 29.96 in 10.0 mi East 6.9 mph - N/A   Scattered Clouds
1:54 AM 80.1 °F 83.6 °F 71.1 °F 74% 29.95 in 10.0 mi ENE 8.1 mph - N/A   Partly Cloudy
2:54 AM 79.0 °F - 71.1 °F 77% 29.94 in 10.0 mi East 6.9 mph - N/A   Scattered Clouds
3:54 AM 79.0 °F - 72.0 °F 79% 29.93 in 10.0 mi East 6.9 mph - N/A   Scattered Clouds
4:54 AM 79.0 °F - 73.0 °F 82% 29.94 in 10.0 mi East 5.8 mph - N/A   Scattered Clouds
5:54 AM 80.1 °F 83.6 °F 71.1 °F 74% 29.95 in 10.0 mi East 9.2 mph - N/A   Partly Cloudy
6:54 AM 80.1 °F 83.6 °F 71.1 °F 74% 29.96 in 10.0 mi East 8.1 mph - N/A   Scattered Clouds
7:54 AM 82.9 °F 87.5 °F 71.1 °F 67% 29.99 in 10.0 mi East 10.4 mph - N/A   Partly Cloudy
8:54 AM 84.9 °F 90.1 °F 71.1 °F 63% 30.01 in 10.0 mi East 10.4 mph - N/A   Partly Cloudy
9:54 AM 86.0 °F 92.2 °F 72.0 °F 63% 30.01 in 10.0 mi East 10.4 mph - N/A   Partly Cloudy
10:54 AM 87.1 °F 93.6 °F 72.0 °F 61% 29.99 in 10.0 mi East 8.1 mph - N/A   Scattered Clouds
11:54 AM 87.1 °F 93.6 °F 72.0 °F 61% 29.98 in 10.0 mi ENE 10.4 mph - N/A   Scattered Clouds
12:54 PM 86.0 °F 93.0 °F 73.0 °F 65% 29.95 in 10.0 mi East 9.2 mph - N/A   Mostly Cloudy
1:54 PM 87.1 °F 95.4 °F 73.9 °F 65% 29.93 in 10.0 mi ENE 9.2 mph - N/A   Scattered Clouds
2:54 PM 86.0 °F 92.2 °F 72.0 °F 63% 29.92 in 10.0 mi NE 10.4 mph - N/A   Scattered Clouds
3:54 PM 86.0 °F 92.2 °F 72.0 °F 63% 29.92 in 10.0 mi ENE 9.2 mph - N/A   Scattered Clouds
4:54 PM 84.0 °F 90.2 °F 73.0 °F 69% 29.94 in 10.0 mi NE 9.2 mph - N/A   Mostly Cloudy
5:54 PM 82.9 °F 88.8 °F 73.0 °F 72% 29.96 in 10.0 mi NE 8.1 mph - N/A   Overcast
6:54 PM 82.0 °F 87.9 °F 73.9 °F 76% 29.99 in 10.0 mi NE 10.4 mph - N/A   Overcast
7:54 PM 81.0 °F 86.2 °F 73.9 °F 79% 30.00 in 10.0 mi NE 10.4 mph - N/A   Scattered Clouds
8:54 PM 81.0 °F 85.2 °F 72.0 °F 74% 30.01 in 10.0 mi ENE 11.5 mph - N/A   Scattered Clouds
9:54 PM 81.0 °F 85.2 °F 72.0 °F 74% 30.02 in 10.0 mi ENE 11.5 mph - N/A   Scattered Clouds
10:54 PM 81.0 °F 84.9 °F 71.1 °F 72% 30.02 in 10.0 mi NE 11.5 mph - N/A   Scattered Clouds
11:54 PM 82.0 °F 86.3 °F 71.1 °F 69% 30.01 in 10.0 mi ENE 16.1 mph - N/A   Mostly Cloudy